DateTime,DeltaTime,Roll,TargetAngle,Position,Power
2022-05-24 11:36:47.972,0,-0.34,-0.26,1,1.12
2022-05-24 11:36:48.085,0.112994760274887,0.17,2.88,1,-11.03
2022-05-24 11:36:48.202,0.229992717504501,0.81,5.94,1,-22.41
2022-05-24 11:36:48.315,0.342997536063194,1.05,5.12,3,-14.7
2022-05-24 11:36:48.433,0.460991263389587,0.71,1.34,2,12.72
2022-05-24 11:36:48.545,0.573000311851501,0.25,-1.06,2,12.29
2022-05-24 11:36:48.660,0.687996670603752,-0.48,-5.07,2,30.82
2022-05-24 11:36:48.775,0.802993029356003,-0.73,-3.98,2,20.74
2022-05-24 11:36:48.889,0.916993618011475,-0.2,1.52,1,-4.77
2022-05-24 11:36:49.003,1.03099420666695,0.5,5.03,2,-20.12
2022-05-24 11:36:49.118,1.146000623703,0.87,5.03,2,-9.53
2022-05-24 11:36:49.229,1.25699378550053,0.95,4.06,3,-6.29
2022-05-24 11:36:49.343,1.370994374156,0.82,2.59,2,4.64
2022-05-24 11:36:49.459,1.48699656128883,0.27,-1.36,2,16.18
2022-05-24 11:36:49.573,1.60099714994431,-0.51,-5.4,1,32.8
2022-05-24 11:36:49.688,1.71599350869656,-0.79,-4.27,1,17.56
2022-05-24 11:36:49.802,1.82999409735203,-0.44,-0.19,0,0.39
2022-05-24 11:36:49.917,1.94500051438808,0.22,3.76,0,-18.88
2022-05-24 11:36:50.032,2.05999687314034,0.73,5.06,0,-19.27
2022-05-24 11:36:50.146,2.17399746179581,0.73,2.88,0,-7.11
2022-05-24 11:36:50.261,2.28899382054806,0.52,1.08,1,-1.23
2022-05-24 11:36:50.375,2.40299440920353,0.04,-1.93,0,16.41
2022-05-24 11:36:50.491,2.51899659633636,-0.67,-5.74,0,25.45
2022-05-24 11:36:50.606,2.63399295508862,-1.12,-6.33,0,25.25
2022-05-24 11:36:50.720,2.74799354374409,-0.64,-0.43,-3,-4.46
2022-05-24 11:36:50.830,2.85799093544483,0.16,4.16,-2,-34.65
2022-05-24 11:36:50.945,2.97299735248089,0.44,2.9,0,-14.05
2022-05-24 11:36:51.060,3.08799371123314,0.42,1.58,1,-0.87
2022-05-24 11:36:51.174,3.20199429988861,0.35,1.04,1,2.35
2022-05-24 11:36:51.289,3.31700071692467,-0.01,-1.59,1,13.5
2022-05-24 11:36:51.404,3.43199707567692,-0.54,-4.42,2,24.44
2022-05-24 11:36:51.518,3.54599766433239,-0.74,-3.75,1,22.85
2022-05-24 11:36:51.633,3.66099402308464,-0.16,1.87,2,-10.17
2022-05-24 11:36:51.748,3.7760004401207,0.87,7.88,1,-26.65
2022-05-24 11:36:51.863,3.89099679887295,1.41,7.85,1,-25.45
2022-05-24 11:36:51.977,4.00499738752842,1.06,2.65,3,1.22
2022-05-24 11:36:52.092,4.11999374628067,0.11,-3.76,2,36.32
2022-05-24 11:36:52.207,4.23500016331673,-0.47,-4.37,2,23.97
2022-05-24 11:36:52.321,4.3490007519722,-0.57,-2.62,1,16.31
2022-05-24 11:36:52.431,4.45899814367294,-0.11,1.54,0,-6.81
2022-05-24 11:36:52.547,4.57500033080578,0.88,7.78,0,-36.31
2022-05-24 11:36:52.660,4.68799509108067,1.64,9.68,1,-37.01
2022-05-24 11:36:52.776,4.8039972782135,1.54,5.61,3,-10.04
2022-05-24 11:36:52.890,4.91799786686897,0.93,0.98,5,16.05
2022-05-24 11:36:53.005,5.03299422562122,-0.43,-7.67,5,60.84
2022-05-24 11:36:53.120,5.14800064265728,-0.9,-5.56,2,36.2
2022-05-24 11:36:53.237,5.26499859988689,-0.5,-0.21,-4,-1.85
2022-05-24 11:36:53.349,5.376997590065,0.45,5.89,-4,-51.2
2022-05-24 11:36:53.463,5.49099817872047,1.29,8.7,-2,-50.57
2022-05-24 11:36:53.578,5.60599453747272,1.29,5.02,3,-18.46
2022-05-24 11:36:53.694,5.72199672460556,1.43,6.17,6,-7.29
2022-05-24 11:36:53.807,5.83499148488045,2.11,11.19,8,-22.76
2022-05-24 11:36:53.923,5.95099367201328,0.97,-1.21,8,51.46
2022-05-24 11:36:54.033,6.06099106371403,-0.21,-5.98,7,57.87
2022-05-24 11:36:54.147,6.1749916523695,-0.75,-5.27,1,43.07
2022-05-24 11:36:54.263,6.29099383950233,0.78,9.72,-4,-58.58
2022-05-24 11:36:54.378,6.40600025653839,1.24,6.86,-3,-42.89
2022-05-24 11:36:54.492,6.51999078691006,1.37,5.88,2,-31.18
2022-05-24 11:36:54.606,6.63399137556553,2.31,13.15,7,-45.93
2022-05-24 11:36:54.722,6.74999356269836,2.37,9.51,13,2.06
2022-05-24 11:36:54.836,6.86399415135384,1.34,0.71,11,64.56
2022-05-24 11:36:54.951,6.97900056838989,0.38,-2.68,10,52.34
2022-05-24 11:36:55.065,7.09299109876156,0.2,-0.03,4,32.26
2022-05-24 11:36:55.183,7.21099488437176,-0.21,-2.61,0,20.82
2022-05-24 11:36:55.295,7.32299387454987,-0.09,0.18,-3,-8.07
2022-05-24 11:36:55.409,7.43699446320534,0.33,3.13,-5,-28.94
2022-05-24 11:36:55.524,7.55199082195759,0.79,5.1,-3,-41.52
2022-05-24 11:36:55.639,7.66699723899364,0.89,3.91,0,-21.33
2022-05-24 11:36:55.749,7.77699463069439,0.24,-1.91,2,18
2022-05-24 11:36:55.864,7.89199098944664,-0.56,-5.7,3,35.6
2022-05-24 11:36:55.978,8.00599157810211,-1.23,-7.69,2,43.62
2022-05-24 11:36:56.093,8.12099799513817,-1.38,-6.02,-3,27.36
2022-05-24 11:36:56.208,8.23599435389042,-0.87,-1.16,-5,-17.72
2022-05-24 11:36:56.323,8.35099071264267,-0.86,-3.35,-6,-4.03
2022-05-24 11:36:56.439,8.46699289977551,-0.51,-0.41,-5,-24.13
2022-05-24 11:36:56.552,8.5799977183342,0.18,3.74,-4,-35.27
2022-05-24 11:36:56.667,8.69499407708645,0.17,0.63,-2,-11.35
2022-05-24 11:36:56.782,8.81000049412251,-0.21,-2.51,0,8.58
2022-05-24 11:36:56.896,8.92399102449417,-0.81,-5.75,0,28.08
2022-05-24 11:36:57.011,9.03899744153023,-1.86,-11.83,0,52.12
2022-05-24 11:36:57.125,9.1529980301857,-1.97,-8.16,-4,25.31
2022-05-24 11:36:57.240,9.26799438893795,-1.36,-2.61,-8,-16.89
2022-05-24 11:36:57.355,9.3829907476902,-0.45,2.24,-7,-48.78
2022-05-24 11:36:57.466,9.49399396777153,-0.03,1.71,-6,-30.14
2022-05-24 11:36:57.580,9.607994556427,-0.34,-2.66,-3,-6.07
2022-05-24 11:36:57.694,9.72199514508247,-0.36,-1.51,-2,-4.2
2022-05-24 11:36:57.809,9.83699150383472,-0.59,-3.29,-3,7.17
2022-05-24 11:36:57.923,9.9509920924902,-1.63,-10.91,-2,36.75
2022-05-24 11:36:58.039,10.066994279623,-2.58,-14.18,-2,50.16
2022-05-24 11:36:58.154,10.1820006966591,-1.45,-0.76,-5,-22.15
2022-05-24 11:36:58.268,10.2959912270308,-0.29,3.91,-6,-43.08
2022-05-24 11:36:58.383,10.4109976440668,0.16,2.63,-4,-32.41
2022-05-24 11:36:58.498,10.5259940028191,0.16,0.58,1,-13.33
2022-05-24 11:36:58.613,10.6410004198551,0.07,-0.14,3,9.6
2022-05-24 11:36:58.726,10.75399518013,-0.03,-0.56,3,14.29
2022-05-24 11:36:58.841,10.8689915388823,-1.06,-8.65,2,51.9
2022-05-24 11:36:58.956,10.9839979559183,-2.02,-12.06,1,55.06
2022-05-24 11:36:59.071,11.0989943146706,-0.67,3.3,-4,-29.92
2022-05-24 11:36:59.181,11.2089917063713,0.51,7.18,-5,-53.14
2022-05-24 11:36:59.296,11.3239981234074,0.3,0.24,-2,-11.57
2022-05-24 11:36:59.411,11.4389944821596,0.08,-0.69,1,-0.13
2022-05-24 11:36:59.529,11.5569982677698,0.26,1.86,1,-3.2
2022-05-24 11:36:59.640,11.6679914295673,0.39,2.09,2,-4.98
2022-05-24 11:36:59.754,11.7819920182228,-0.56,-6.33,1,42.31
2022-05-24 11:36:59.870,11.8979942053556,-1.26,-7.99,0,34.04
2022-05-24 11:36:59.985,12.0130006223917,-0.89,-1.87,-3,-1.65
2022-05-24 11:37:00.099,12.1269911527634,0.07,4.48,-4,-38.89
2022-05-24 11:37:00.213,12.2409917414188,0.72,5.63,-2,-38.06
2022-05-24 11:37:00.328,12.3559981584549,0.76,3.17,1,-13.81
2022-05-24 11:37:00.443,12.4709945172071,0.79,3.23,3,-5.42
2022-05-24 11:37:00.558,12.5859908759594,0.87,3.7,3,-1.84
2022-05-24 11:37:00.673,12.7009972929955,0.07,-3.22,4,30.73
2022-05-24 11:37:00.783,12.8109946846962,-0.96,-8.24,3,52.34
2022-05-24 11:37:00.897,12.9249952733517,-0.8,-2.42,0,11.07
2022-05-24 11:37:01.013,13.0409974604845,0.22,5.28,-4,-33.04
2022-05-24 11:37:01.126,13.1539922207594,1.13,8.43,-2,-55.27
2022-05-24 11:37:01.242,13.2699944078922,1.07,3.86,2,-13.01
2022-05-24 11:37:01.357,13.3849907666445,0.79,1.9,5,7.67
2022-05-24 11:37:01.471,13.4989913552999,0.86,3.67,6,5.97
2022-05-24 11:37:01.585,13.6129919439554,0.36,-0.8,6,31.88
2022-05-24 11:37:01.700,13.7279983609915,-0.37,-4.65,5,44.6
2022-05-24 11:37:01.815,13.8429947197437,-0.51,-2.55,2,24.99
2022-05-24 11:37:01.930,13.957991078496,0.47,6.07,0,-28.38
2022-05-24 11:37:02.045,14.072997495532,1.39,9.48,0,-40.56
2022-05-24 11:37:02.159,14.1869980841875,1.63,7.4,3,-23.95
2022-05-24 11:37:02.277,14.3049918115139,1.76,7.43,6,-12.51
2022-05-24 11:37:02.384,14.4119918346405,1.9,8.04,7,-4.85
2022-05-24 11:37:02.499,14.5269982516766,1.41,3.33,7,20.4
2022-05-24 11:37:02.613,14.640998840332,0.29,-3.78,7,48.83
2022-05-24 11:37:02.728,14.7559951990843,-0.02,-1.41,5,27.92
2022-05-24 11:37:02.843,14.8709915578365,0.54,4.56,2,-8.06
2022-05-24 11:37:02.957,14.984992146492,1.4,9.18,1,-35.72
2022-05-24 11:37:03.072,15.0999985635281,1.95,10.06,2,-35.73
2022-05-24 11:37:03.187,15.2149949222803,2.02,8.17,5,-19.67
2022-05-24 11:37:03.302,15.3299912810326,2,7.74,7,-6.86
2022-05-24 11:37:03.416,15.443991869688,1.77,5.86,8,7.81
2022-05-24 11:37:03.531,15.5589982867241,0.91,-0.2,8,38.15
2022-05-24 11:37:03.646,15.6739946454763,0.11,-3.05,8,43.87
2022-05-24 11:37:03.760,15.7879952341318,0.17,0.92,4,21.3
2022-05-24 11:37:03.875,15.9029915928841,1.1,8.35,2,-30.02
2022-05-24 11:37:03.985,16.0129990428686,1.91,10.96,3,-38.51
2022-05-24 11:37:04.101,16.1289911717176,1.92,7.53,5,-11.1
2022-05-24 11:37:04.214,16.2419959902763,2.09,8.93,7,-14.33
2022-05-24 11:37:04.330,16.3579981774092,2.31,9.92,8,-10.45
2022-05-24 11:37:04.445,16.4729945361614,1.85,5.21,8,16.55
2022-05-24 11:37:04.559,16.5869951248169,0.67,-2.57,8,48.23
2022-05-24 11:37:04.674,16.7019914835691,0.12,-1.94,5,35.87
2022-05-24 11:37:04.789,16.8169979006052,0.45,3.17,2,-2.99
2022-05-24 11:37:04.903,16.9309984892607,1.23,8.23,1,-32.51
2022-05-24 11:37:05.018,17.0459948480129,1.8,9.51,2,-33.88
2022-05-24 11:37:05.132,17.1599954366684,1.76,6.72,4,-12.7
2022-05-24 11:37:05.247,17.2749917954206,1.8,7.21,6,-10.55
2022-05-24 11:37:05.362,17.3899982124567,1.6,5.35,9,6.45
2022-05-24 11:37:05.476,17.5039988011122,0.69,-1.27,6,49.63
2022-05-24 11:37:05.591,17.6189951598644,-0.31,-5.6,5,44.54
2022-05-24 11:37:05.702,17.7299983799458,0.04,1.68,2,2.48
2022-05-24 11:37:05.816,17.8439989686012,0.44,3.49,0,-10.45
2022-05-24 11:37:05.931,17.9589953273535,1.14,7.5,0,-34.35
2022-05-24 11:37:06.045,18.0729959160089,1.72,9.26,0,-35.97
2022-05-24 11:37:06.161,18.1889981031418,1.37,3.8,3,-7.19
2022-05-24 11:37:06.275,18.3029986917973,1,2.31,4,7.8
2022-05-24 11:37:06.390,18.4179950505495,0.2,-2.74,5,32.25
2022-05-24 11:37:06.505,18.5329914093018,-0.9,-8.29,4,57.65
2022-05-24 11:37:06.619,18.6469919979572,-0.91,-3.63,0,20.77
2022-05-24 11:37:06.734,18.7619984149933,-0.08,3.33,-3,-25.96
2022-05-24 11:37:06.849,18.8769947737455,0.22,2.19,-4,-21.19
2022-05-24 11:37:06.964,18.9919911324978,0.29,1.4,-3,-20.28
2022-05-24 11:37:07.078,19.1059917211533,0.58,3.55,0,-26.26
2022-05-24 11:37:07.188,19.2159991711378,0.6,2.46,2,-4.91
2022-05-24 11:37:07.303,19.3309955298901,0.28,-0.33,3,13.48
2022-05-24 11:37:07.418,19.4459918886423,-0.71,-7.14,3,46.49
2022-05-24 11:37:07.533,19.5609983056784,-1.52,-9.42,1,48.86
2022-05-24 11:37:07.647,19.6749988943338,-1.11,-2.54,-4,1.41
2022-05-24 11:37:07.762,19.7899952530861,-0.42,1.39,-5,-31.29
2022-05-24 11:37:07.876,19.9039958417416,-0.14,0.66,-5,-21.4
2022-05-24 11:37:07.991,20.0189922004938,-0.13,-0.46,-2,-15.96
2022-05-24 11:37:08.106,20.1339986175299,0.13,1.64,0,-13.38
2022-05-24 11:37:08.220,20.2479992061853,0.18,0.88,0,-1.07
2022-05-24 11:37:08.335,20.3629955649376,-0.35,-3.63,0,17.81
2022-05-24 11:37:08.450,20.4779919236898,-1.59,-11.66,0,52.41
2022-05-24 11:37:08.568,20.5959957093,-2.11,-10.46,-3,37.04
2022-05-24 11:37:08.679,20.7069989293814,-1.35,-1.94,-6,-18.06
2022-05-24 11:37:08.794,20.8219952881336,-0.37,2.85,-7,-42.04
2022-05-24 11:37:08.904,20.9319926798344,-0.21,-0.11,-5,-22.79
2022-05-24 11:37:09.019,21.0469990968704,-0.41,-2.52,-3,-3.96
2022-05-24 11:37:09.134,21.1619954556227,-0.41,-1.61,-3,-4.48
2022-05-24 11:37:09.248,21.2759960442781,-0.54,-2.69,-3,-0.65
2022-05-24 11:37:09.363,21.3909924030304,-1.49,-9.96,-2,34.28
2022-05-24 11:37:09.478,21.5059988200665,-2.63,-15.21,-4,56.64
2022-05-24 11:37:09.593,21.6209951788187,-2.32,-7.72,-7,1.3
2022-05-24 11:37:09.708,21.735991537571,-1.19,0.3,-9,-41.07
2022-05-24 11:37:09.821,21.8489963561296,-0.56,0.61,-7,-38.83
2022-05-24 11:37:09.937,21.9649985432625,-0.68,-3.18,-5,-7.73
2022-05-24 11:37:10.052,22.0799949020147,-0.62,-2.18,-4,-10.66
2022-05-24 11:37:10.166,22.1939954906702,-0.46,-1.07,-3,-12.75
2022-05-24 11:37:10.281,22.3089918494225,-1,-6.3,-2,18.27
2022-05-24 11:37:10.395,22.4229924380779,-2.23,-14.06,-2,54.24
2022-05-24 11:37:10.510,22.537998855114,-2.31,-9.35,-7,20.98
2022-05-24 11:37:10.625,22.6529952138662,-1.42,-1.63,-9,-35.86
2022-05-24 11:37:10.735,22.762992605567,-0.98,-1.89,-8,-28.32
2022-05-24 11:37:10.849,22.8769931942225,-0.67,-1.31,-6,-24.64
2022-05-24 11:37:10.964,22.9919996112585,-0.35,0.05,-4,-22.59
2022-05-24 11:37:11.081,23.1089975684881,-0.2,-0.15,-2,-12.97
2022-05-24 11:37:11.195,23.2229981571436,-0.87,-6.29,0,24.54
2022-05-24 11:37:11.308,23.3359929174185,-1.87,-11.68,-2,51.2
2022-05-24 11:37:11.424,23.4519951045513,-2.17,-9.76,-4,23.52
2022-05-24 11:37:11.538,23.5659956932068,-1.44,-2.4,-6,-17.46
2022-05-24 11:37:11.654,23.6819978803396,-0.81,-0.45,-6,-25.1
2022-05-24 11:37:11.767,23.7949926406145,-0.36,0.59,-6,-25.63
2022-05-24 11:37:11.882,23.9099990576506,0.12,2.59,-4,-34.86
2022-05-24 11:37:11.997,24.0249954164028,0.22,1.29,0,-16.51
2022-05-24 11:37:12.112,24.1399917751551,-0.53,-5.32,1,31.75
2022-05-24 11:37:12.226,24.2539923638105,-1.2,-7.63,1,34.88
2022-05-24 11:37:12.341,24.3689987808466,-1.72,-8.97,-3,38.01
2022-05-24 11:37:12.456,24.4839951395988,-1.59,-5.67,-7,0.65
2022-05-24 11:37:12.566,24.5939925312996,-1.19,-2.9,-6,-23.38
2022-05-24 11:37:12.680,24.7079931199551,-0.56,0.57,-8,-27.26
2022-05-24 11:37:12.795,24.8229995369911,-0.06,1.95,-4,-41.52
2022-05-24 11:37:12.910,24.9379958957434,0.08,0.97,-2,-13.06
2022-05-24 11:37:13.025,25.0529922544956,-0.36,-3.37,2,11.66
2022-05-24 11:37:13.139,25.1669928431511,-1,-6.72,0,40.23
2022-05-24 11:37:13.254,25.2819992601871,-1.33,-6.59,1,20.75
2022-05-24 11:37:13.369,25.3969956189394,-1.68,-8.08,-3,36.6
2022-05-24 11:37:13.483,25.5109962075949,-1.36,-3.93,-5,-6.65
2022-05-24 11:37:13.598,25.6259925663471,-0.33,3.21,-6,-41.56
2022-05-24 11:37:13.712,25.7399931550026,0.28,3.79,-4,-38.26
2022-05-24 11:37:13.829,25.8569911122322,0.38,1.93,0,-17.75
2022-05-24 11:37:13.942,25.9699959307909,0.23,0.26,1,5.02
2022-05-24 11:37:14.057,26.0849922895432,-0.11,-1.9,3,13.33
2022-05-24 11:37:14.168,26.1959955096245,-1.18,-9.31,2,56.58
2022-05-24 11:37:14.282,26.30999609828,-1.53,-7.49,1,31.34
2022-05-24 11:37:14.397,26.4249924570322,-0.88,-0.55,-4,-3.83
2022-05-24 11:37:14.512,26.5399988740683,-0.17,2.41,-4,-33.12
2022-05-24 11:37:14.626,26.6539994627237,0.58,5.52,-4,-38.8
2022-05-24 11:37:14.741,26.768995821476,0.48,1.45,0,-15.23
2022-05-24 11:37:14.856,26.8839921802282,0.51,2.15,2,-4.53
2022-05-24 11:37:14.970,26.9979927688837,0.62,2.86,3,-2.63
2022-05-24 11:37:15.085,27.1129991859198,0.11,-1.78,3,23.81
2022-05-24 11:37:15.200,27.227995544672,-0.81,-7.17,3,43.82
2022-05-24 11:37:15.317,27.3449935019016,-0.75,-2.66,0,15.13
2022-05-24 11:37:15.429,27.4569924920797,-0.24,1.27,-2,-13.1
2022-05-24 11:37:15.543,27.5709930807352,0.62,6.15,-3,-38.57
2022-05-24 11:37:15.658,27.6859994977713,1.12,6.6,-2,-37.53
2022-05-24 11:37:15.773,27.8009958565235,0.84,2.04,2,-8.68
2022-05-24 11:37:15.883,27.9109932482243,0.55,0.84,4,9.64
2022-05-24 11:37:15.998,28.0259996652603,-0.03,-2.66,5,30.44
2022-05-24 11:37:16.113,28.1409960240126,-0.74,-5.98,4,45.49
2022-05-24 11:37:16.227,28.254996612668,-0.89,-4.09,3,26.09
2022-05-24 11:37:16.345,28.3730003982782,0,3.87,-2,-14.21
2022-05-24 11:37:16.458,28.4859951585531,0.91,7.57,-3,-46.09
2022-05-24 11:37:16.572,28.5999957472086,1.16,5.58,0,-30.37
2022-05-24 11:37:16.686,28.7139963358641,0.9,2.35,2,-1.3
2022-05-24 11:37:16.801,28.8289926946163,1,4.39,4,-9.87
2022-05-24 11:37:16.915,28.9429932832718,0.83,2.44,3,9.71
2022-05-24 11:37:17.030,29.0579997003078,0.21,-1.85,3,21.16
2022-05-24 11:37:17.145,29.1729960590601,-0.83,-7.82,3,47.14
2022-05-24 11:37:17.260,29.2879924178123,-0.95,-4.25,1,22.06
2022-05-24 11:37:17.374,29.4019930064678,0.6,9.16,-2,-49.65
2022-05-24 11:37:17.486,29.5139919966459,1.03,5.85,0,-28.58
2022-05-24 11:37:17.600,29.6279925853014,1.1,4.6,4,-13.43
2022-05-24 11:37:17.715,29.7429990023375,1.28,5.81,4,-4.18
2022-05-24 11:37:17.829,29.8569995909929,1.37,5.72,7,-7.54
2022-05-24 11:37:17.943,29.9710001796484,0.67,-0.41,7,37.89
2022-05-24 11:37:18.058,30.0859965384007,0.22,-1.14,6,30.23
2022-05-24 11:37:18.173,30.2009928971529,0.15,0.26,2,17.98
2022-05-24 11:37:18.288,30.315999314189,0.56,3.96,0,-16.83
2022-05-24 11:37:18.403,30.4309956729412,1.32,8.46,1,-39.48
2022-05-24 11:37:18.517,30.5449962615967,1.78,8.98,3,-29.27
2022-05-24 11:37:18.631,30.6589968502522,1.9,7.95,5,-15.51
2022-05-24 11:37:18.746,30.7739932090044,1.7,5.77,7,0.97
2022-05-24 11:37:18.861,30.8889996260405,0.87,-0.25,7,35.55
2022-05-24 11:37:18.972,30.999992787838,-0.19,-5.36,6,51.27
2022-05-24 11:37:19.086,31.1139933764935,-0.19,-0.73,3,17.46
2022-05-24 11:37:19.201,31.2289997935295,0.24,2.78,0,-7.09
